Klamath Falls, OR

6:02 PM PDT on March 23, 2017 (GMT -0700)
Klamath Falls International

Weather History for KLMT - November, 2013

Change the Weather History Date:

Wednesday, November 20, 2013

  Actual Average Record
Temperature  
Mean Temperature 36 °F 34 °F  
Max Temperature 43 °F 43 °F 61 °F (2002)
Min Temperature 28 °F 24 °F 6 °F (1977)
Degree Days  
Heating Degree Days 29 31  
Month to date heating degree days 510 559  
Since 1 July heating degree days 1476 1475  
Cooling Degree Days 0 0  
Month to date cooling degree days 0 0  
Year to date cooling degree days 285 169  
Moisture  
Dew Point 34 °F    
Average Humidity 84    
Maximum Humidity 100    
Minimum Humidity 48    
Precipitation  
Precipitation 0.13 in 0.08 in 0.89 in (1955)
Month to date precipitation 0.34 1.43  
Year to date precipitation 5.25 12.75  
Sea Level Pressure  
Sea Level Pressure 29.93 in    
Wind  
Wind Speed 6 mph (North)    
Max Wind Speed 18 mph    
Max Gust Speed 25 mph    
Visibility 9 miles    
Events Rain    
T = Trace of Precipitation, MM = Missing Value Source: NWS Daily Summary

Daily Weather History Graph

Daily Weather History Graph

Search for Another Location

Airport or City:

Trip Planner

Search our weather history database for the weather conditions in past years. The results will help you decide how hot, cold, wet, or windy it might be!

Date:

Astronomy

Nov. 20, 2013 Rise Set
Actual Time 7:03 AM PST 4:41 PM PST
Civil Twilight 6:33 AM PST 5:11 PM PST
Nautical Twilight 5:58 AM PST 5:45 PM PST
Astronomical Twilight 5:25 AM PST 6:19 PM PST
Moon 7:28 PM PST (11/20) 9:32 AM PST (11/20)
Length of Visible Light 10h 38m
Length of Day
9h 37m
Waning Gibbous, 91% of the Moon is Illuminated
Nov 20
Waning Gibbous
Nov 25
Last Quarter
Dec 2
New
Dec 9
First Quarter
Dec 17
Full

Hourly Weather History & Observations

Time (PST) Temp. Windchill Dew Point Humidity Pressure Visibility Wind Dir Wind Speed Gust Speed Precip Events Conditions
12:41 AM 42.8 °F - 37.4 °F 81% 29.86 in 10.0 mi Calm Calm - 0.00 in Rain Light Rain
12:53 AM 42.1 °F 39.2 °F 37.9 °F 85% 29.84 in 10.0 mi NNW 4.6 mph - 0.00 in Rain Light Rain
1:53 AM 42.1 °F - 39.0 °F 89% 29.83 in 10.0 mi Calm Calm - 0.02 in   Overcast
2:17 AM 42.8 °F - 39.2 °F 87% 29.86 in 10.0 mi Calm Calm - N/A   Overcast
2:53 AM 39.9 °F - 37.9 °F 93% 29.84 in 10.0 mi Calm Calm - N/A   Overcast
3:21 AM 39.2 °F 35.9 °F 39.2 °F 100% 29.86 in 10.0 mi NW 4.6 mph - 0.00 in Rain Light Rain
3:53 AM 39.9 °F - 39.0 °F 97% 29.84 in 10.0 mi Calm Calm - 0.01 in Rain Light Rain
4:53 AM 41.0 °F - 39.9 °F 96% 29.85 in 7.0 mi Calm Calm - 0.01 in Rain Light Rain
5:23 AM 41.0 °F 39.0 °F 39.2 °F 93% 29.87 in 6.0 mi East 3.5 mph - 0.03 in Rain Light Rain
5:53 AM 41.0 °F - 39.9 °F 96% 29.86 in 10.0 mi Calm Calm - 0.03 in   Overcast
6:53 AM 39.0 °F - 39.0 °F 100% 29.87 in 10.0 mi Calm Calm - 0.01 in   Overcast
7:20 AM 39.2 °F - 39.2 °F 100% 29.88 in 2.0 mi Calm Calm - N/A   Overcast
7:27 AM 39.2 °F - 39.2 °F 100% 29.89 in 10.0 mi Calm Calm - N/A   Overcast
7:53 AM 39.0 °F - 39.0 °F 100% 29.89 in 7.0 mi Calm Calm - N/A   Overcast
8:04 AM 39.2 °F 37.0 °F 39.2 °F 100% 29.90 in 7.0 mi North 3.5 mph - N/A   Overcast
8:48 AM 42.8 °F 41.1 °F 42.8 °F 100% 29.91 in 7.0 mi NNW 3.5 mph - N/A   Overcast
8:53 AM 42.1 °F 40.2 °F 42.1 °F 100% 29.90 in 7.0 mi North 3.5 mph - N/A   Overcast
9:30 AM 42.8 °F 41.1 °F 42.8 °F 100% 29.92 in 10.0 mi NNW 3.5 mph - 0.00 in Rain Light Rain
9:44 AM 42.8 °F 41.1 °F 42.8 °F 100% 29.92 in 9.0 mi NW 3.5 mph - 0.00 in Rain Light Rain
9:53 AM 43.0 °F 40.3 °F 43.0 °F 100% 29.91 in 10.0 mi NW 4.6 mph - 0.00 in Rain Light Rain
10:12 AM 42.8 °F 37.5 °F 42.8 °F 100% 29.92 in 7.0 mi NNW 9.2 mph - 0.00 in Rain Light Rain
10:50 AM 42.8 °F 40.1 °F 42.8 °F 100% 29.92 in 4.0 mi NNE 4.6 mph - 0.04 in Rain Light Rain
10:53 AM 43.0 °F 40.3 °F 42.1 °F 97% 29.91 in 4.0 mi North 4.6 mph - 0.04 in Rain Light Rain
11:53 AM 43.0 °F 37.7 °F 37.9 °F 82% 29.90 in 10.0 mi NNE 9.2 mph - 0.01 in   Overcast
12:53 PM 39.9 °F 32.9 °F 35.1 °F 83% 29.91 in 10.0 mi NNW 11.5 mph - N/A   Overcast
1:23 PM 39.2 °F 33.0 °F 35.6 °F 87% 29.93 in 10.0 mi North 9.2 mph - N/A   Overcast
1:53 PM 39.0 °F 33.4 °F 34.0 °F 82% 29.93 in 10.0 mi NNW 8.1 mph 16.1 mph N/A   Overcast
2:53 PM 39.9 °F 34.5 °F 27.0 °F 60% 29.95 in 10.0 mi NNE 8.1 mph - N/A   Overcast
3:53 PM 39.0 °F 32.8 °F 21.9 °F 50% 29.96 in 10.0 mi NNE 9.2 mph 18.4 mph N/A   Overcast
4:53 PM 35.1 °F 26.4 °F 21.0 °F 57% 30.00 in 10.0 mi NNE 12.7 mph - N/A   Mostly Cloudy
5:53 PM 34.0 °F 25.5 °F 21.0 °F 59% 30.03 in 10.0 mi NNE 11.5 mph - N/A   Clear
6:53 PM 33.1 °F 23.9 °F 19.0 °F 56% 30.06 in 10.0 mi NNE 12.7 mph - N/A   Clear
7:53 PM 32.0 °F 24.8 °F 19.0 °F 59% 30.07 in 10.0 mi NE 8.1 mph - N/A   Clear
8:53 PM 32.0 °F 23.0 °F 19.0 °F 59% 30.09 in 10.0 mi NNE 11.5 mph - N/A   Clear
9:53 PM 30.0 °F 18.7 °F 17.1 °F 59% 30.10 in 10.0 mi NNE 16.1 mph - N/A   Clear
10:53 PM 28.9 °F 22.8 °F 12.9 °F 51% 30.12 in 10.0 mi NE 5.8 mph - N/A   Clear
11:53 PM 28.0 °F 24.2 °F 12.0 °F 51% 30.15 in 10.0 mi NNE 3.5 mph - N/A   Clear